Regional Weather Roundup
Issued by NWS

Home | Current Version | Previous Version | Graphics & Text | Print | Product List | Glossary On
Versions: 1 2 3 4 5 6 7 8 9 10 11 12 13 14 15 16 17 18 19 20 21 22 23 24 25 26 27 28 29 30 31 32 33 34 35 36 37 38 39 40 41 42 43 44 45 46 47 48 49 50
000
ASUS43 KBIS 091810
RWRND

NORTH DAKOTA REGIONAL WEATHER ROUNDUP
NATIONAL WEATHER SERVICE BISMARCK ND
1200 PM CST FRI DEC 09 2016

NOTE: "FAIR" INDICATES FEW OR NO CLOUDS BELOW 12,000 FEET WITH NO
SIGNIFICANT WEATHER AND/OR OBSTRUCTIONS TO VISIBILITY.


NDZ001>003-009>011-017-091900-
NORTHWEST NORTH DAKOTA

CITY           SKY/WX    TMP DP  RH WIND       PRES   REMARKS
WILLISTON      CLOUDY    -6 -11  79 NE6       30.58F WCI -19
6HR MIN TEMP: -17; 6HR MAX TEMP:  -5;

MINOT          SUNNY     -9 -15  75 W12       30.56F WCI -28
MINOT AFB      SUNNY    -12 -17  76 NW12      30.56F WCI -32
$$

NDZ018>021-031>035-040>046-091900-
SOUTHWEST NORTH DAKOTA

CITY           SKY/WX    TMP DP  RH WIND       PRES   REMARKS
BISMARCK       CLOUDY     0  -7  72 NW9       30.58S WCI -15
6HR MIN TEMP: -17; 6HR MAX TEMP:   0;

GARRISON         N/A     -6 -12  75 NW15      30.54S WCI -27
6HR MIN TEMP: -17; 6HR MAX TEMP:  -6;

HETTINGER ARPT CLOUDY    -5  -9  83 CALM      30.46F
$$

NDZ004>008-012>016-024-026-027-054-091900-
NORTHEAST NORTH DAKOTA

CITY           SKY/WX    TMP DP  RH WIND       PRES   REMARKS
GRAND FORKS    CLOUDY     2  -5  72 NW12      30.59F WCI -15
GRND FRKS AFB  CLOUDY     0  -9  65 NW12      30.59F WCI -17
DEVILS LAKE    SUNNY     -6 -11  79 NW9       30.55S WCI -23
$$

NDZ022-023-025-028>030-036>039-047>053-091900-
SOUTHEAST NORTH DAKOTA

CITY           SKY/WX    TMP DP  RH WIND       PRES   REMARKS
FARGO          MOSUNNY    5  -4  66 NW10      30.58F WCI -10
6HR MIN TEMP:   4; 6HR MAX TEMP:   8;

JAMESTOWN      SUNNY     -3  -8  79 NW12      30.54F WCI -21
$$





USA.gov is the U.S. government's official web portal to all federal, state and local government web resources and services.